Location: *
(40.7873°S, 98.7174°E)
Time: 10:45:04
(UTC+00:00)

SAR-Lupe-3 - Pass Details

Date: 24 May 2022
Orbit: 479 x 487 km, 98.2° (Epoch: 10 April)

Event Time Altitude Azimuth Distance (km) Brightness Sun altitude
Exits shadow 11:54:02 33° 165° (SSE) 859 5.5 -19.3°
Maximum altitude 11:55:36 87° 75° (ENE) 504 4.5 -19.6°
Drops below altitude 10° 11:59:14 10° 347° (NNW) 1,685 7.6 -20.3°
Sets 12:01:17 0° 346° (NNW) 2,557 8.5 -20.7°
